Weather History for KDYL - August, 2013

Change the Weather History Date:

Saturday, August 24, 2013

  Actual Average (KTTN) Record (KTTN)
Temperature  
Mean Temperature 68 °F 73 °F  
Max Temperature 80 °F 83 °F 93 °F (1898)
Min Temperature 57 °F 63 °F 50 °F (1994)
Degree Days  
Heating Degree Days 0 0  
Month to date heating degree days 0  
Since 1 June heating degree days 24  
Since 1 July heating degree days 0  
Cooling Degree Days 3 8  
Month to date cooling degree days 227  
Year to date cooling degree days 804  
Since 1 June cooling degree days 747  
Growing Degree Days 18 (Base 50)    
Moisture  
Dew Point 53 °F    
Average Humidity 65    
Maximum Humidity 93    
Minimum Humidity 31    
Precipitation  
Precipitation 0.00 in 0.13 in 2.15 in (1901)
Month to date precipitation 3.32  
Year to date precipitation 30.20  
Sea Level Pressure  
Sea Level Pressure 30.26 in    
Wind  
Wind Speed 4 mph (NNE)    
Max Wind Speed 8 mph    
Max Gust Speed -    
Visibility 10 miles    
Events      
T = Trace of Precipitation, MM = Missing Value Source: NWS Daily Summary

Daily Weather History Graph

Daily Weather History Graph

Search for Another Location

Airport or City:

Trip Planner

Search our weather history database for the weather conditions in past years. The results will help you decide how hot, cold, wet, or windy it might be!

Date:

Astronomy

Aug. 24, 2013 Rise Set
Actual Time 6:20 AM EDT 7:44 PM EDT
Civil Twilight 5:51 AM EDT 8:12 PM EDT
Nautical Twilight 5:17 AM EDT 8:46 PM EDT
Astronomical Twilight 4:41 AM EDT 9:22 PM EDT
Moon 9:36 PM EDT (8/24) 10:18 AM EDT (8/24)
Length of Visible Light 14h 20m
Length of Day
13h 23m
Waning Gibbous, 84% of the Moon is Illuminated
Aug 24
Waning Gibbous
Aug 28
Last Quarter
Sep 5
New
Sep 12
First Quarter
Sep 19
Full

Hourly Weather History & Observations

Time (EDT) Temp. Dew Point Humidity Pressure Visibility Wind Dir Wind Speed Gust Speed Precip Events Conditions
12:54 AM 64.9 °F 57.0 °F 75% 30.12 in 10.0 mi North 3.5 mph - N/A   Mostly Cloudy
1:54 AM 64.0 °F 57.0 °F 78% 30.13 in 10.0 mi NE 3.5 mph - N/A   Mostly Cloudy
2:54 AM 62.1 °F 57.0 °F 84% 30.14 in 10.0 mi NNE 5.8 mph - N/A   Clear
3:54 AM 61.0 °F 55.9 °F 83% 30.17 in 10.0 mi NNE 4.6 mph - N/A   Clear
4:54 AM 57.0 °F 54.0 °F 89% 30.19 in 10.0 mi NNE 4.6 mph - N/A   Clear
5:54 AM 57.9 °F 52.0 °F 81% 30.20 in 10.0 mi NNE 4.6 mph - N/A   Clear
6:54 AM 57.9 °F 51.1 °F 78% 30.23 in 10.0 mi NNE 4.6 mph - N/A   Clear
7:54 AM 62.1 °F 52.0 °F 70% 30.25 in 10.0 mi NNE 5.8 mph - N/A   Clear
8:54 AM 66.0 °F 53.1 °F 63% 30.27 in 10.0 mi NNE 8.1 mph - N/A   Clear
9:54 AM 70.0 °F 52.0 °F 53% 30.29 in 10.0 mi Variable 6.9 mph - N/A   Clear
10:54 AM 72.0 °F 51.1 °F 48% 30.29 in 10.0 mi NE 8.1 mph - N/A   Clear
11:54 AM 73.9 °F 54.0 °F 50% 30.29 in 10.0 mi Calm Calm - N/A   Clear
12:54 PM 75.9 °F 53.1 °F 45% 30.28 in 10.0 mi NE 6.9 mph - N/A   Clear
1:54 PM 79.0 °F 53.1 °F 40% 30.28 in 10.0 mi NNE 6.9 mph - N/A   Clear
2:54 PM 79.0 °F 46.0 °F 31% 30.28 in 10.0 mi Variable 6.9 mph - N/A   Clear
3:54 PM 79.0 °F 50.0 °F 36% 30.28 in 10.0 mi Calm Calm - N/A   Clear
4:54 PM 79.0 °F 48.9 °F 35% 30.28 in 10.0 mi NNE 5.8 mph - N/A   Clear
5:54 PM 75.0 °F 51.1 °F 43% 30.29 in 10.0 mi Calm Calm - N/A   Clear
6:54 PM 72.0 °F 55.0 °F 55% 30.29 in 10.0 mi Calm Calm - N/A   Clear
7:54 PM 64.0 °F 57.9 °F 80% 30.30 in 10.0 mi Calm Calm - N/A   Clear
8:54 PM 62.1 °F 55.9 °F 80% 30.33 in 10.0 mi Calm Calm - N/A   Clear
9:54 PM 60.1 °F 53.1 °F 78% 30.34 in 10.0 mi Calm Calm - N/A   Clear
10:54 PM 57.9 °F 55.0 °F 90% 30.35 in 10.0 mi Calm Calm - N/A   Clear
11:54 PM 57.0 °F 55.0 °F 93% 30.35 in 10.0 mi Calm Calm - N/A   Clear